Regional Weather Roundup
Issued by NWS

Home | Current Version | Previous Version | Graphics & Text | Print | Product List | Glossary On
Versions: 1 2 3 4 5 6 7 8 9 10 11 12 13 14 15 16 17 18 19 20 21 22 23 24 25 26 27 28 29 30 31 32 33 34 35 36 37 38 39 40 41 42 43 44 45 46 47 48 49 50
000
ASUS45 KBOU 280207
RWRCO

WEATHER ROUNDUP FOR COLORADO
NATIONAL WEATHER SERVICE DENVER/BOULDER CO
800 PM MDT WED JUL 27 2016

NOTE: "FAIR" INDICATES FEW OR NO CLOUDS BELOW 12000 FEET WITH NO
SIGNIFICANT WEATHER AND/OR OBSTRUCTIONS TO VISIBILITY.

COZ001>005-013-030-031-280300-
...NORTHWEST COLORADO...

CITY           SKY/WX    TMP DP  RH WIND       PRES   REMARKS
CRAIG          FAIR      85  20   9 N5        30.18R
HAYDEN         FAIR      82  23  11 N9        30.22R
MEEKER         FAIR      82  39  21 NE5       30.20S
MOUNT WERNER   NOT AVBL
STEAMBOAT SPGS FAIR      81  29  15 NW5       30.24S
WALDEN         FAIR      73  23  15 N7        30.38R
$$

COZ006>008-011-280300-
...WEST CENTRAL VALLEYS...

CITY           SKY/WX    TMP DP  RH WIND       PRES   REMARKS
GRAND JUNCTION FAIR      94  33  11 NW3       30.03R
MONTROSE       FAIR      89  40  17 W6        30.14S
EAGLE          FAIR      88  25  10 NW10G18   30.23R
RIFLE          FAIR      92  27   9 N3        30.10S
DELTA          NOT AVBL
NUCLA          NOT AVBL
$$

COZ017>023-064>068-280300-
...SOUTHWEST COLORADO...

CITY           SKY/WX    TMP DP  RH WIND       PRES   REMARKS
DURANGO        FAIR      84  29  13 N8        30.18R
CORTEZ         FAIR      89  37  16 N8        30.13R
PAGOSA SPRINGS FAIR      83  19   9 N7        30.28S
TELLURIDE      FAIR      73  27  18 CALM      30.48R
WOLF CREEK PAS FAIR      59  27  29 N17       30.71S
$$

COZ009-010-012-014-032>034-037-058>063-280300-
...CENTRAL COLORADO...

CITY           SKY/WX    TMP DP  RH WIND       PRES   REMARKS
ASPEN          FAIR      76  34  21 CALM      30.33R
BUENA VISTA    FAIR      79  21  11 NW10      30.33R
COPPER MTN     FAIR      64  21  19 NW13G18   30.73S
BERTHOUD PASS  FAIR      54  39  58 NW21G29   30.76R
COTTONWOOD PAS FAIR      73  10   9 CALM      30.51R
GUNNISON       FAIR      79  30  17 NW6       30.34R
KREMMLING      FAIR      79  14   8 NW3       30.31S
LEADVILLE      FAIR      67  22  18 N7        30.53R
MONARCH PASS   FAIR      63  27  25 MISG      30.81R
SALIDA         FAIR      80  37  21 SE9       30.35R
SUNLIGHT       NOT AVBL
WILKERSON PASS FAIR      61  32  33 S5        30.68R
$$

COZ069>075-280300-
...SAN LUIS VALLEY/SANGRE DE CRISTO MOUNTAINS...

CITY           SKY/WX    TMP DP  RH WIND       PRES   REMARKS
ALAMOSA        FAIR      76  38  25 E13       30.26R
LA VETA PASS   FAIR      64  34  32 NE14G20   30.54S
SAGUACHE       FAIR      82  30  15 E5        30.31R
$$

COZ035-036-038>040-280300-
...NORTHERN COLORADO FRONT RANGE...

CITY           SKY/WX    TMP DP  RH WIND       PRES   REMARKS
DENVER INTL AP MOCLDY    80  60  50 E23       30.13S
DMNS CITY PARK   N/A     80  59  47 NE6G17    30.14R
AURORA         MOCLDY    79  60  51 E17G24    30.15R
FRONT RANGE AP MOCLDY    82  61  47 E20G28    30.15S
ERIE MUNI ARPT FAIR      81  56  43 E3        30.14R
BOULDER MUN AP FAIR      82  52  34 E6        30.16R
CENTENNIAL     FAIR      82  52  35 E13G26    30.16R
BROOMFIELD     NOT AVBL
LONGMONT       NOT AVBL
$$

COZ041-046-047-076>085-087-088-280300-
...PIKES PEAK/PALMER DIVIDE AND SOUTHERN FOOTHILLS...

CITY           SKY/WX    TMP DP  RH WIND       PRES   REMARKS
COLO. SPRINGS  FAIR      81  49  32 S10       30.20R
A. F. ACADEMY  FAIR      78  44  29 S5        30.22R
SCHRIEVER AFB  NOT AVBL
ELLICOTT       FAIR     N/A N/A N/A SE16G22   30.19R
FALCON         FAIR      74  47  38 S6        30.27R
FORT CARSON    FAIR      81  51  34 S9        30.17R
LIMON          FAIR      79  51  37 E6        30.18R
MONUMENT HILL  FAIR      70  43  37 S5        30.29R
TRINIDAD       NOT AVBL
$$

COZ042>045-048>051-090-091-280300-
...NORTHEAST COLORADO...

CITY           SKY/WX    TMP DP  RH WIND       PRES   REMARKS
GREELEY ARPT   FAIR      79  59  50 N5        30.12R
AKRON          FAIR      73  61  65 E13G23    30.15R
BURLINGTON     FAIR      77  60  55 E7        30.10R
WRAY           NOT AVBL
STERLING       NOT AVBL
HOLYOKE        NOT AVBL
FORT MORGAN    NOT AVBL
$$

COZ086-089-092>099-280300-
...SOUTHEAST COLORADO...

CITY           SKY/WX    TMP DP  RH WIND       PRES   REMARKS
PUEBLO         FAIR      88  49  25 SE8       30.07R
LA JUNTA       FAIR      86  59  39 SE21G29   30.04S
LAMAR          FAIR      82  60  47 S16       30.03R
SPRINGFIELD      N/A     71  60  68 SE7       30.13R
$$



USA.gov is the U.S. government's official web portal to all federal, state and local government web resources and services.